星链-30117 (STARLINK-30117 )

导读

STARLINK-30117是美国太空探索技术公司星链星座的卫星,于2023年5月19日发射入轨,归属于美国。它是星链互联网卫星星座组网的组成单元,承担着为全球范围内用户提供低延迟、高速率宽带互联网接入服务的任务,属于低轨通信卫星,推动了全球卫星互联网覆盖网络的构建。

Basic Information
目录编号:
56702
目录名称:
STARLINK-30117
国际标识:
2023-067Q
轨道中心:
EARTH
卫星名称:
星链-30117
卫星全名:
星链-30117 (STARLINK-30117 )
卫星状态:
在轨 (已飞行1126 天)
发射日期:
2023-05-19 UTC
国别 :
美国 (US)
星等 :
--
Orbit Information
数据来源 国际轨道数据 AOE轨道数据
星历时间 2026-06-18T10:25:12+0800
13小时前
查看轨道信息
2026-06-15T23:00:00+0800
3天前
查看轨道信息
半长轴 6861.224km 6861.188km
偏心率 0.0001868 0.0001399
轨道倾角 43.005° 43.007°
近地点辐角 276.108° 244.308°
升交点赤经 70.995° 84.977°
平近点角 83.956° 164.452°
近地点 481.805km 482.091km
远地点 484.369km 484.011km
周期 94.268分钟 94.267分钟
每日圈数 15.275674 15.275794
Detailed Information
固有亮度:
5
最大亮度:
0.3
卫星平台:
Starlink v2.0 mini
覆盖范围:
全球
运营商:
太空探索技术公司
运营商所在国:
美国
制造商(研发单位):
太空探索技术公司
制造商所在国:
美国
使用方式:
暂无
Satellite Introduction
星链(Starlink)计划是由太空探索技术公司(SpaceX)提出的一个巨型低轨卫星互联网星座项目,计划在2019年至2024年间在太空搭建由约1.2万颗卫星组成的“星链”网络,其中1584颗将部署在地球上空550千米处的近地轨道,并从2020年开始工作。该卫星仍在工作。
2D Orbit Map
3D Orbit Map
Orbit Altitude Analysis Chart
Orbit Inclination Analysis Chart
Orbit Comprehensive Analysis Chart
View Comprehensive Chart